www.pogodaiklimat.ru

Погода и климат >> Архив погоды >> Нигер >> Тиллабери


ПОГОДА в Тиллабери

  • Прогноз погоды в Тиллабери
  • Монитор погоды в Тиллабери

АРХИВ ПОГОДЫ в Тиллабери

Время (UTC), дата Ветер
(напр.,м/с)
 
Видим.   Явления Облачность Т
(С)
Тd
(С)
f
(%)
Тe
(С)
Тes
(С)
Комфортность P
(гПа)
Po
(гПа)
Тmin
(С)
Tmax
(С)
R
(мм)
R24
(мм)
S
(см)
03 9.09 штиль 0 10 км зарница 6/1 1200 м
[Cb cap Ci sp]
+27.8 +23.8 79 +38 +38 очень
душно
1011.3 988.1
06 9.09 Ю 4 10 км в посл. час гроза {дождь} 10/1 1200 м
[Cu med, cong Ac As]
+22.5 +21.0 91 +29 +29 очень
душно
1013.5 990.0 +21.7 5
09 9.09 Ю 4 10 км слаб. дождь 10/5 900 м
[Cu Sc Ac As]
+24.0 +21.8 88 +31 +32 очень
душно
1015.0 991.3
12 9.09 штиль 0 10 км {дождь} 9/0
[Ac As Ci sp]
+26.5 +23.2 82 +36 +52 опасность
солнечного
удара
1013.9 990.3 4
15 9.09 штиль 0 10 км 9/0
[Cs]
+30.8 +23.0 63 +41 +52 опасность
перегрева
1011.4 987.9
18 9.09 штиль 0 10 км 6/0
[Ac trans Ci sp]
+29.5 +23.9 72 +41 +41 опасность
перегрева
1011.6 987.9 +31.2 4
21 9.09 штиль 0 10 км 4/0
[Ci fib]
+27.7 +25.7 89 +41 +41 опасность
перегрева
1012.5 988.8
00 10.09 штиль 0 10 км 6/0
[Ci sp]
+27.0 +24.9 88 +39 +39 очень
душно
1012.9 989.2
03 10.09 штиль 0 10 км 4/0
[Ci fib]
+26.0 +24.9 94 +37 +37 очень
душно
1012.8 989.2
06 10.09 штиль 0 10 км 6/1 1200 м
[Cu hum Ac trans Ci sp]
+25.5 +24.0 91 +35 +35 очень
душно
1013.2 989.6 +25.4 4
09 10.09 ЮЗ 4 10 км 6/0
[Ac lent Ci sp]
+29.6 +23.8 71 +41 +47 опасность
перегрева
1012.9 989.5
12 10.09 ЮЗ 4 10 км 6/1 1200 м
[Cu hum Ci sp]
+33.0 +23.9 59 +45 +56 опасность
перегрева
1012.1 988.7
15 10.09 ЮЗ 4 10 км 6/3 1200 м
[Cu hum Ci fib]
+35.0 +23.8 52 +46 +51 опасность
перегрева
1009.0 985.8
18 10.09 штиль 0 10 км 6/0
[Ci sp]
+33.0 +23.9 59 +45 +45 опасность
перегрева
1008.5 985.2 +35.5
21 10.09 штиль 0 10 км 6/0
[Ci sp]
+30.0 +25.6 77 +44 +44 опасность
перегрева
1009.6 986.3
00 11.09 штиль 0 10 км 6/0
[Ci sp]
+29.0 +24.5 77 +41 +41 опасность
перегрева
1009.8 986.5
03 11.09 штиль 0 10 км 6/0
[Ci sp]
+28.0 +25.0 84 +40 +40 очень
душно
1009.3 986.1
06 11.09 штиль 0 10 км 9/0
[Ac trans Ci sp]
+27.5 +24.7 85 +39 +39 очень
душно
1010.4 987.0 +27.3
09 11.09 З 8 10 км 9/0
[Ac trans Ci sp]
+31.0 +24.0 66 +43 +44 опасность
перегрева
1011.0 987.7
12 11.09 СЗ 2 10 км 6/0
[Ci sp]
+34.8 +24.2 54 +47 +66 опасность
перегрева
1009.8 986.6
15 11.09 З 2 10 км 6/1 1200 м
[Cu med, cong Ci sp]
+36.8 +22.3 43 +45 +53 опасность
перегрева
1006.2 983.2
18 11.09 штиль 0 10 км 9/1 1500 м
[Cb cap Ac trans Ci sp]
+35.5 +24.4 53 +48 +48 опасность
перегрева
1007.5 984.4 +37.5
21 11.09 Ю 28 10 км гроза, ливневой дождь 10/3 1500 м
[Cb cap Ac As]
+23.5 +21.6 89 +30 +30 очень
душно
1011.9 989.3
03 12.09 штиль 0 10 км 10/0
[Ac As]
+24.3 +22.4 89 +32 +32 очень
душно
1010.0 986.7
06 12.09 штиль 0 10 км {ливн. осадки} 9/0
[Ac As Ci sp]
+24.0 +22.6 92 +31 +31 очень
душно
1010.7 987.3 +22.8 10
09 12.09 ЮЗ 4 10 км 6/0
[Ac trans Ci sp]
+27.5 +23.2 77 +37 +43 очень
душно
1013.1 989.4
12 12.09 ЮЗ 4 10 км 6/0
[Ci sp]
+31.8 +22.8 59 +42 +54 опасность
перегрева
1011.9 988.4
15 12.09 Ю 4 10 км 9/5 1200 м
[Cu med, cong Ac trans Ci sp]
+33.0 +23.6 58 +44 +46 опасность
перегрева
1010.1 986.7
18 12.09 штиль 0 10 км 6/0
[Ci sp]
+31.4 +24.6 67 +44 +44 опасность
перегрева
1010.0 986.5 +33.8
21 12.09 штиль 0 10 км 6/0
[Ci sp]
+29.2 +25.5 80 +43 +43 опасность
перегрева
1011.2 987.8
03 13.09 штиль 0 10 км 9/0
[Ac As Ci sp]
+27.2 +24.1 83 +38 +38 очень
душно
1010.9 987.5
06 13.09 Ю 4 10 км 10/0
[Ac As]
+26.2 +22.8 82 +35 +35 очень
душно
1012.0 988.5 +26.0
09 13.09 Ю 4 10 км 10/0
[Ac As]
+27.0 +21.9 74 +35 +37 очень
душно
1013.3 989.7
12 13.09 СЗ 4 10 км 10/0
[Ac As]
+31.0 +22.4 60 +40 +44 очень
душно
1012.4 989.0
15 13.09 штиль 0 10 км 10/0
[Ac As]
+33.0 +22.4 54 +42 +46 опасность
перегрева
1009.8 986.5
18 13.09 штиль 0 10 км 9/0
[Ac lent Ci sp]
+31.0 +24.0 66 +43 +43 опасность
перегрева
1010.5 987.0 +33.4
21 13.09 штиль 0 10 км 9/1 1500 м
[Cb cap Ac As Ci sp]
+28.6 +22.9 71 +38 +38 очень
душно
1012.3 988.8
03 14.09 штиль 0 10 км 10/0
[Cs]
+26.8 +23.4 82 +36 +36 очень
душно
1009.6 986.3
06 14.09 штиль 0 10 км 10/0
[Ac As]
+26.1 +24.0 88 +36 +36 очень
душно
1010.1 986.7 +26.0
09 14.09 З 4 10 км 9/0
[Cs]
+30.4 +23.6 67 +41 +48 опасность
перегрева
1012.0 988.6
12 14.09 СЗ 4 10 км 6/0
[Ci sp]
+35.5 +22.6 47 +45 +57 опасность
перегрева
1010.1 986.9
15 14.09 З 4 10 км 9/0
[Cs]
+37.0 +22.1 42 +45 +51 опасность
перегрева
1008.2 985.0
18 14.09 штиль 0 10 км 9/0
[Cs]
+34.6 +25.1 58 +48 +48 опасность
перегрева
1007.2 984.0 +37.7
21 14.09 штиль 0 10 км 9/0
[Cs]
+31.5 +25.3 70 +46 +46 опасность
перегрева
1008.3 985.1
03 15.09 ЮЗ 2 10 км 6/0
[Ci sp]
+28.0 +23.0 74 +37 +37 очень
душно
1008.1 985.0
06 15.09 штиль 0 10 км 6/0
[Ci sp]
+26.4 +22.2 78 +34 +34 очень
душно
1009.2 985.8 +26.4
09 15.09 ЮВ 4 10 км 9/0
[Ac trans Ci sp]
+30.5 +24.5 70 +43 +48 опасность
перегрева
1013.5 969.2
12 15.09 Ю 6 10 км 10/5 1200 м
[Cu med, cong Ac As]
+30.6 +23.4 65 +41 +42 опасность
перегрева
1011.1 987.8
15 15.09 ЮЗ 8 10 км 10/0
[Ac As]
+31.0 +22.4 60 +40 +41 очень
душно
1009.0 985.7
18 15.09 Ю 2 10 км 10/0
[Ac As]
+29.5 +22.8 67 +39 +39 очень
душно
1009.3 985.8 +32.5
21 15.09 штиль 0 10 км 9/0
[Ac As Ci sp]
+28.5 +22.8 71 +38 +38 очень
душно
1010.4 987.0

 

Местоположение метеостанции Тиллабери (Нигер): широта 14.20 долгота 1.45 высота над уровнем моря 210 м.

В архиве по умолчанию представлена погода в Тиллабери за последнюю неделю. Архивные данные за месяц целиком и за предыдущие месяцы, начиная с января 2011 года, Вы можете получить, выбрав интересующий диапазон дат из раскрывающегося списка и нажав кнопку "Ввод!".


*Определитесь, кто Вы:
робот инопланетянин человек

Внимание! Время в таблицах - всемирное. Для получения местного времени необходимо прибавить поправку, которая равна 1 ч.

Смотрите также архив погоды в соседних городах и на ближайших метеорологических станциях:

Погода в Ниамее (Нигер) (112 км)
Погода в Дори (Буркина-Фасо) (161 км)
Погода в Досо (Нигер) (231 км)
Погода в Фада-Нгурме (Буркина-Фасо) (268 км)
Погода в Гае (Нигер) (337 км)
Погода в Канди (Бенин) (377 км)
Погода в Уагадугу (Буркина-Фасо) (382 км)
Погода в Дапаоне (Того) (389 км)
Погода в Вирнин-Конни (Нигер) (413 км)
Погода в Тахве (Нигер) (416 км)

Пояснения к столбцам:

Ветер - указаны скорость ветра в м/с - средняя за 10 мин, порывы в срок и между сроками (в фигурных скобках) и направление, откуда дует ветер: С - северный, СВ - северо-восточный, В - восточный, ЮВ - юго-восточный, Ю - южный, ЮЗ - юго-западный, З - западный, СЗ - северо-западный.
Видимость - горизонтальная дальность видимости в метрах или километрах. При видимости от 1 до 10 км при отсутствии осадков обычно наблюдается дымка, при ухудшении видимости до 1 км и менее - туман. В сухую погоду видимость может ухудшаться дымом, пылью или мглою.
Явления - указаны атмосферные явления, наблюдавшиеся в срок или в последний час перед сроком; фигурными скобками обозначены явления, наблюдавшиеся между сроками (за 1-3 часа до срока); квадратными скобками обозначены град или гололедные отложения с указанием их диаметра в мм.
Облачность - указаны через наклонную черту общая и нижняя облачность в баллах и высота нижней границы облаков в метрах; квадратными скобками обозначены формы облаков: Ci - перистые, Cs - перисто-слоистые, Cc - перисто-кучевые, Ac - высококучевые, As - высокослоистые, Sc - слоисто-кучевые, Ns - слоисто-дождевые, Cu - кучевые, Cb - кучево-дождевые. Подробнее классификацию облаков см. в Атласе облаков (PDF).
T - Температура воздуха - температура, измеренная на высоте 2 м над землей.
Td - Температура точки росы - температура, при понижении до которой содержащийся в воздухе водяной пар достигнет насыщения.
f - Относительная влажность воздуха - влажноcть воздуха, измеренная на высоте 2 м над землей.
Te - Эффективная температура - температура, которую ощущает одетый по сезону человек в тени. Характеристика душности погоды. При расчете учитывается влияние влажности воздуха и скорости ветра на теплоощущения человека.
Tes - Эффективная температура на солнце - температура, которую ощущает человек, с поправкой на солнечный нагрев. Характеристика знойности погоды. Зависит от высоты солнца над горизонтом, облачности и скорости ветра. Ночью, в пасмурную погоду, а также при ветре 12 м/с и более поправка равна нулю.
P - Атмосферное давление - приведенное к уровню моря атмосферное давление.
Po - Атмосферное давление - измеренное на уровне метеостанции атмосферное давление.
Tmin - Минимальная температура - минимум температуры воздуха на высоте 2 м над землей.
Tmax - Максимальная температура - максимум температуры воздуха на высоте 2 м над землей.
R - Количество осадков - Количество выпавших осадков за период времени, мм. При наведении курсора мыши на число - период времени, за который выпало указанное количество осадков.
R24 - Количество осадков - Количество выпавших осадков за 24 часа, мм.
S - Снежный покров - Высота снежного покрова, см. При наведении курсора мыши на число - состояние снежного покрова и степень покрытия местности в баллах.